Location: Cabeza de los Veneras
(40.2000°N, 5.2000°W)
Time: 12:42:06
(UTC+00:00)

Cosmos 1697 Rocket - Pass Details

Date: 18 April 2024
Orbit: 832 x 843 km, 71.0° (Epoch: 26 May)

Event Time Altitude Azimuth Distance (km) Brightness Sun altitude
Exits shadow 22:00:17 70° 265° (W) 897 2.8 -29.2°
Maximum altitude 22:00:37 72° 294° (WNW) 886 2.8 -29.3°
Drops below altitude 10° 22:06:17 10° 19° (NNE) 2,469 5.5 -30.0°
Sets 22:08:46 0° 22° (NNE) 3,408 6.2 -30.2°
